{"data":{"norad_id":55351,"intl_designator":"2023-013W","name":"STARLINK-5659","alt_names":[],"object_type":"PAYLOAD","status":"ACTIVE","operator":null,"country":"US","launch_date":"2023-01-26","launch_site_code":"AFETR","launch_vehicle":null,"mission":null,"orbit_class":"UNKNOWN","rcs_meters":null,"size_class":null,"mass_kg":null,"dimensions":null,"purposes":["comms"],"wikipedia_slug":null,"has_3d_model":false,"image_url":null,"decayed_at":null,"tle_current":{"epoch":"2026-05-24T14:08:29.586912Z","epoch_age_seconds":107369,"freshness":"FRESH","line1":"1 55351U 23013W   26144.58923133  .00000409  00000+0  24375-4 0  9996","line2":"2 55351  43.0022 234.5528 0001527 259.2514 100.8165 15.27577639183289","mean_motion":15.27577639,"eccentricity":0.0001527,"inclination_deg":43.0022,"raan_deg":234.5528,"arg_perigee_deg":259.2514,"mean_anomaly_deg":100.8165,"bstar":2.4375e-5,"rev_number":18328,"period_min":94.266894410858,"perigee_km":482.00846153572,"apogee_km":484.10386992853,"semimajor_km":6861.1931657321,"source":"CELESTRAK","updated_at":"2026-05-25T13:38:17.763889Z"}}}